Location: Borojevi?i
(45.0486°N, 16.2297°E)
Time: 07:21:13
(UTC+00:00)

Cosmos 1703 Rocket - Pass Details

Date: 08 August 2020
Orbit: 605 x 633 km, 82.5° (Epoch: 26 September)

Event Time Altitude Azimuth Distance (km) Brightness Sun altitude
Rises 20:40:11 0° 353° (N) 2,890 8.0 -21.3°
Reaches altitude 10° 20:42:27 10° 357° (N) 1,976 6.9 -21.5°
Maximum altitude 20:46:48 65° 80° (E) 672 3.5 -22.0°
Enters shadow 20:47:04 63° 103° (ESE) 681 3.5 -22.0°
